Regional Weather Roundup
Issued by NWS

Home | Current Version | Previous Version | Graphics & Text | Print | Product List | Glossary On
Versions: 1 2 3 4 5 6 7 8 9 10 11 12 13 14 15 16 17 18 19 20 21 22 23 24 25 26 27 28 29 30 31 32 33 34 35 36 37 38 39 40 41 42 43 44 45 46 47 48 49 50
000
ASUS43 KDTX 270310
RWRMI
MICHIGAN HOURLY REGIONAL WEATHER ROUNDUP
NATIONAL WEATHER SERVICE DETROIT/PONTIAC MI
1100 PM EDT THU MAY 26 2016

NOTE: "FAIR" INDICATES FEW OR NO CLOUDS BELOW 12,000 FEET WITH NO
SIGNIFICANT WEATHER AND/OR OBSTRUCTION TO VISIBILITY.

MIZ047>049-052>055-059>063-066>070-074>076-081>083-270400-
SOUTHEAST LOWER MICHIGAN

CITY           SKY/WX    TMP DP  RH WIND       PRES   REMARKS
ADRIAN         PTCLDY    75  63  66 SW6       29.96R
ALMA           CLEAR     67  66  95 W10       29.91S
ANN ARBOR      MOCLDY    75  64  68 SW17G24   29.94R
BAD AXE        MOCLDY    72  65  79 CALM      29.91R
CARO           MOCLDY    71  65  80 S5        29.90R
DETROIT CITY   MOCLDY    78  64  61 SW10      29.93R
DETROIT        MOCLDY    76  65  68 S7        29.94R
FLINT          MOCLDY    76  67  73 SW6       29.92R
GROSSE ILE     CLEAR     75  66  73 SW8       29.93R
HILLSDALE      CLOUDY    73  55  53 CALM      29.97R
HOWELL         CLEAR     75  62  62 SW6       29.94R

CITY           SKY/WX    TMP DP  RH WIND       PRES   REMARKS
JACKSON        PTCLDY    74  61  63 CALM      29.95R
LAMBERTVILLE   PTCLDY    77  65  67 SW5       29.96R
LANSING        PTCLDY    75  59  57 SW8       29.94R
LAPEER         FAIR      74  63  67 SW3       29.92R
MASON          PTCLDY    72  58  61 S9        29.94R
MONROE         CLEAR     77  67  71 SW8       29.94R
MT. CLEMENS    CLOUDY    70  65  84 S8        29.92R
PONTIAC        PTCLDY    76  63  64 S7        29.93R
PORT HOPE        N/A     73  67  81 MISG      29.90R
PORT HURON     PTCLDY    72  64  78 S3        29.93R
TRI CITIES     CLOUDY    74  65  73 W6        29.90R
MIDLAND        MOCLDY    73  65  74 CALM      29.89R
TROY           MOCLDY    80  64  57 SW6       29.95R
SAGINAW HB     CLEAR     70  66  88 CALM      29.89S
$$
MIZ043>046-050>051-056>058-064>065-071>073-077>080-270400-
SOUTHWEST LOWER MICHIGAN

CITY           SKY/WX    TMP DP  RH WIND       PRES   REMARKS
BATTLE CREEK   MOCLDY    71  60  68 W6        29.96R
BENTON HARBOR  CLOUDY    68  63  84 CALM      29.93R
BIG RAPIDS     CLEAR     65  62  91 CALM      29.92R
COLDWATER      PTCLDY    67  58  72 CALM      29.96R
FREMONT        FAIR      67  65  92 S3        29.92R
HOLLAND        CLEAR     69  62  78 CALM      29.93R
GRAND RAPIDS   PTCLDY    71  62  73 W7        29.93R
IONIA          FAIR      70  61  73 SW6       29.92R
KALAMAZOO      PTCLDY    72  60  66 CALM      29.95R
LUDINGTON      CLEAR     67  62  81 CALM      29.91R
MARSHALL       CLOUDY    69  59  71 SW3       29.95R
MOUNT PLEASANT CLEAR     71  62  73 W3        29.90R
MUSKEGON       PTCLDY    67  60  78 S3        29.92R
SOUTH HAVEN    CLEAR     66  64  91 CALM      29.94R
$$
MIZ016>042-270400-
NORTHERN LOWER MICHIGAN

CITY           SKY/WX    TMP DP  RH WIND       PRES   REMARKS
ALPENA         CLEAR     65  62  90 CALM      29.89R
BEAVER ISLAND  FOG       53  53 100 W3        29.91R VSB 1/2
BELLAIRE       CLEAR     64  60  87 CALM      29.89R
CADILLAC       CLEAR     62  58  88 W3        29.92R
CHARLEVOIX     CLOUDY    60  59  97 W5        29.92R
FRANKFORT      PTCLDY    59  58  96 CALM      29.90S FOG
GAYLORD        CLOUDY    64  61  90 SW5       29.91R
GRAYLING       CLEAR     65  60  84 CALM      29.92R
HARBOR SPRINGS FOG       54  54  99 CALM      29.90R VSB 1/2
HOUGHTON LAKE  CLEAR     69  61  75 SW3       29.91R
MANISTEE       PTCLDY    66  57  72 CALM      29.90S
OSCODA         PTCLDY    66  63  88 SW5       29.88R
PELLSTON       PTCLDY    58  56  93 NW10      29.89R
ROGERS CITY    CLEAR     62  60  94 S5        29.88S
TRAVERSE CITY  CLEAR     70  61  73 SW3       29.88R
$$
MIZ007>008-015-270400-
EASTERN UPPER MICHIGAN

CITY           SKY/WX    TMP DP  RH WIND       PRES   REMARKS
KINROSS          N/A     59  59 100 W6        29.88R
MACKINAC ISLAN FOG       53  53 100 W10       29.88R VSB 3/4
NEWBERRY       CLOUDY    58  57  97 W7        29.89R
S. S. MARIE    CLOUDY    61  59  93 W9        29.86R FOG
MUNISING         N/A     59  58  96 S5        29.87R
$$
MIZ004>006-011>014-085-270400-
CENTRAL UPPER MICHIGAN

CITY           SKY/WX    TMP DP  RH WIND       PRES   REMARKS
MANISTIQUE     CLOUDY    56  56  97 CALM      29.89R FOG
ESCANABA         N/A     57  55  94 CALM      29.87S
MENOMINEE      PTCLDY    61  57  88 S3        29.88S
SAWYER-GWINN   CLEAR     61  58  90 S5        29.88R
$$
MIZ001>003-009>011-084-270400-
WESTERN UPPER MICHIGAN

CITY           SKY/WX    TMP DP  RH WIND       PRES   REMARKS
IRON MOUNTAIN  MOCLDY    65  61  87 S5        29.87R
HOUGHTON       PTCLDY    54  53  97 CALM      29.84S FOG
COPPER HARBOR    N/A     47  47 100 CALM      29.85R
IRONWOOD       CLOUDY    61  59  94 E3        29.82R
$$

ABBREVIATIONS USED IN REMARKS
   TC - TEMPERATURE IN CELSIUS
  WCI - WIND CHILL INDEX
   HX - HEAT INDEX
  VSB - VISIBILITY





USA.gov is the U.S. government's official web portal to all federal, state and local government web resources and services.